Regional Weather Roundup
Issued by NWS

Home | Current Version | Previous Version | Graphics & Text | Print | Product List | Glossary On
Versions: 1 2 3 4 5 6 7 8 9 10 11 12 13 14 15 16 17 18 19 20 21 22 23 24 25 26 27 28 29 30 31 32 33 34 35 36 37 38 39 40 41 42 43 44 45 46 47 48 49 50
000
ASUS43 KDTX 190810
RWRMI
MICHIGAN HOURLY REGIONAL WEATHER ROUNDUP
NATIONAL WEATHER SERVICE DETROIT/PONTIAC MI
400 AM EDT SUN APR 19 2015

NOTE: "FAIR" INDICATES FEW OR NO CLOUDS BELOW 12,000 FEET WITH NO
SIGNIFICANT WEATHER AND/OR OBSTRUCTION TO VISIBILITY.

MIZ047>049-052>055-059>063-066>070-074>076-081>083-190900-
SOUTHEAST LOWER MICHIGAN

CITY           SKY/WX    TMP DP  RH WIND       PRES   REMARKS
ADRIAN         PTCLDY    46  31  55 E15       30.06F
ALMA           PTCLDY    40  32  72 E9        30.11F WCI  34
ANN ARBOR      PTCLDY    45  30  55 E8        30.07F
BAD AXE        CLEAR     38  28  68 E3        30.16S
CARO           PTCLDY    39  29  67 CALM      30.13F
DETROIT CITY   MOCLDY    46  31  55 E10       30.10F
DETROIT        MOCLDY    47  32  56 NE7       30.09F
FLINT          PTCLDY    43  30  60 E10       30.11F
GROSSE ILE     PTCLDY    43  37  81 NE8       30.07F
HILLSDALE      PTCLDY    50  27  41 E14G23    30.03F
HOWELL         PTCLDY    44  30  58 E8        30.07F

CITY           SKY/WX    TMP DP  RH WIND       PRES   REMARKS
JACKSON        PTCLDY    46  29  51 E8        30.05F
LAMBERTVILLE   PTCLDY    50  34  53 E9G21     30.07S
LANSING        PTCLDY    43  29  57 E8        30.08F
LAPEER         FAIR      39  30  68 CALM      30.12F
MASON          PTCLDY    42  29  61 E6        30.06F
MONROE         PTCLDY    45  34  65 NE8       30.06F
PONTIAC        PTCLDY    45  29  53 E10       30.09F
PORT HOPE        N/A     41  34  76 E16       30.15F
PORT HURON     MOCLDY    36  32  87 NE3       30.13F
TRI CITIES     PTCLDY    41  31  67 E8        30.14F
TROY           PTCLDY    45  31  57 NE6       30.12F
SAGINAW HB     PTCLDY    36  30  80 NE6       30.13F WCI  31
$$
MIZ043>046-050>051-056>058-064>065-071>073-077>080-190900-
SOUTHWEST LOWER MICHIGAN

CITY           SKY/WX    TMP DP  RH WIND       PRES   REMARKS
BATTLE CREEK   MOCLDY    48  28  46 E8        30.04F
BENTON HARBOR  CLOUDY    54  25  32 E14       29.97F
BIG RAPIDS     PTCLDY    44  31  60 E9        30.09F
COLDWATER      MOCLDY    51  24  33 E12G17    30.02F
FREMONT        FAIR      45  27  48 E9G18     30.05F
HOLLAND        CLOUDY    49  31  49 E12       30.02F
GRAND RAPIDS   MOCLDY    45  28  51 E15       30.05F
IONIA          FAIR      43  30  61 E13       30.06F
KALAMAZOO      MOCLDY    50  25  37 E6        30.03F
LUDINGTON      PTCLDY    48  25  40 E13G21    30.04F
MARSHALL       PTCLDY    46  29  51 E6        30.03F
MOUNT PLEASANT PTCLDY    37  32  81 NE5       30.12F WCI  34
MUSKEGON       MOCLDY    48  29  47 E16G26    30.03F
SOUTH HAVEN    MOCLDY    54  20  27 E12G21    29.99S
$$
MIZ016>042-190900-
NORTHERN LOWER MICHIGAN

CITY           SKY/WX    TMP DP  RH WIND       PRES   REMARKS
ALPENA         CLEAR     40  29  64 SE10      30.20F WCI  33
BEAVER ISLAND  CLEAR     40  27  59 E9        30.13S WCI  34
BELLAIRE       CLEAR     47  21  35 E6        30.10F
CADILLAC       CLEAR     41  26  54 E10       30.09S
CHARLEVOIX     CLEAR     46  24  41 SE14      30.14S
FRANKFORT      CLEAR     50  14  23 E7G20     30.05S
GAYLORD        CLEAR     40  24  53 VRB6      30.12F
GRAYLING       CLEAR     33  24  70 E7        30.14F WCI  26
HARBOR SPRINGS CLEAR     42  25  51 E13       30.14S
HOUGHTON LAKE  CLEAR     38  25  59 E8        30.13F WCI  32
MANISTEE       CLEAR     46  21  36 SE10G18   30.06S
OSCODA         CLEAR     41  31  66 E12       30.17F
PELLSTON       CLEAR     35  25  66 E7        30.15F WCI  29
ROGERS CITY    CLEAR     39  30  71 E14       30.20F WCI  30
TRAVERSE CITY  CLEAR     47  25  42 VRB6      30.08F
$$
MIZ007>008-015-190900-
EASTERN UPPER MICHIGAN

CITY           SKY/WX    TMP DP  RH WIND       PRES   REMARKS
KINROSS        CLEAR     39  25  56 E17G26    30.18S WCI  30
MACKINAC ISLAN CLEAR     40  28  62 E16G30    30.15F WCI  32
NEWBERRY       CLEAR     32  27  81 E10       30.14F WCI  24
S. S. MARIE    PTCLDY    40  23  50 SE8       30.19S WCI  34
MUNISING         N/A     39  26  59 S7        30.09F WCI  34
$$
MIZ004>006-011>014-085-190900-
CENTRAL UPPER MICHIGAN

CITY           SKY/WX    TMP DP  RH WIND       PRES   REMARKS
MANISTIQUE     CLEAR     36  27  70 E6        30.11F WCI  31
ESCANABA       CLEAR     39  27  60 E6        30.08F WCI  35
MENOMINEE      CLEAR     43  28  56 E10       30.03F
SAWYER-GWINN   CLEAR     37  25  60 SE9       30.06F WCI  31
$$
MIZ001>003-009>011-084-190900-
WESTERN UPPER MICHIGAN

CITY           SKY/WX    TMP DP  RH WIND       PRES   REMARKS
IRON MOUNTAIN  PTCLDY    39  26  59 SE7       30.03F WCI  34
HOUGHTON       CLOUDY    36  27  69 E12       30.04F WCI  28
COPPER HARBOR    N/A     36  29  75 SW9       30.07F WCI  29
IRONWOOD       CLOUDY    48  25  40 E8G16     29.91F
$$

ABBREVIATIONS USED IN REMARKS
   TC - TEMPERATURE IN CELSIUS
  WCI - WIND CHILL INDEX
   HX - HEAT INDEX
  VSB - VISIBILITY




USA.gov is the U.S. government's official web portal to all federal, state and local government web resources and services.